Location: Sternwarte_Laufen
(47.9344°N, 12.9346°E)
Time: 05:47:57
(UTC+01:00)

BlueWalker 3 - Visible Passes

Search period start: 03 February 2023 00:00
Search period end: 13 February 2023 00:00
Orbit: 499 x 517 km, 53.2° (Epoch: 02 February)

Date Brightness Start Highest point End Pass type
(mag) Time Alt. Az. Time Alt. Az. Time Alt. Az.
03 Feb 2.7 17:50:53 10° W 17:54:35 41° N 17:58:16 10° ENE visible
03 Feb 3.0 19:30:03 10° WNW 19:33:03 37° NNW 19:33:03 37° NNW visible
04 Feb 2.6 19:11:06 10° WNW 19:14:49 41° N 19:14:55 41° NNE visible
05 Feb 2.6 18:52:09 10° WNW 18:55:52 42° NNE 18:56:49 35° NE visible
05 Feb 4.9 20:30:49 10° WNW 20:31:37 16° WNW 20:31:37 16° WNW visible
06 Feb 2.6 18:33:10 10° WNW 18:36:54 43° NNE 18:38:45 25° ENE visible
06 Feb 4.2 20:11:50 10° WNW 20:13:32 25° WNW 20:13:32 25° WNW visible
07 Feb 2.5 18:14:12 10° WNW 18:17:56 43° NNE 18:20:43 16° E visible
07 Feb 3.2 19:52:51 10° WNW 19:55:31 40° W 19:55:31 40° W visible
08 Feb 2.5 17:55:12 10° WNW 17:58:57 44° NNE 18:02:42 10° E visible
08 Feb 2.2 19:33:52 10° WNW 19:37:34 63° SW 19:37:34 63° SW visible
09 Feb 2.3 19:14:52 10° WNW 19:18:43 61° SSW 19:19:42 43° SSE visible
10 Feb 2.4 18:55:52 10° WNW 18:59:42 58° SSW 19:01:58 22° SE visible
10 Feb 5.1 20:36:26 10° WSW 20:36:48 11° WSW 20:36:48 11° WSW visible
11 Feb 2.5 18:36:52 10° WNW 18:40:40 56° SW 18:44:23 11° SE visible
11 Feb 4.9 20:17:45 10° WSW 20:18:35 11° SW 20:19:13 10° SW visible
12 Feb 2.7 18:17:50 10° WNW 18:21:38 53° SW 18:25:26 10° SE visible
